[[{"header":{"parameterUnit":"m.s-1","parameterCategory":1,"la1":30.2991,"la2":30.254,"lo1":-89.0895,"lo2":-89.0444,"dy":0.0017,"dx":0.0017,"nx":28,"ny":28,"refTime":"2025-12-23T09:00:00:Z","depth":0,"parameterNumber":2,"parameterNumberName":"U-component_of_WINDS"},"data":[0,0,0,0,0,0,0,0,0,0,0,0,0,0,0,0,0,0,0,0,0,0,0,0,0,0,0,0,0,0,0,0,0,0,0,0,0,0,0,0,0,0,0,0,0,0,0,0,0,0,0,0,0,0,0,0,0,0,-1.9982,-1.9982,0,-1.9984,-1.9984,-1.9984,-1.9919,-1.9917,-1.9916,-1.9914,-1.9916,-1.9918,-1.9919,0,0,0,0,0,0,0,0,0,0,0,0,0,-1.9924,-1.9925,-1.9982,-1.9982,-1.9982,-1.9984,-1.9984,-1.9984,-1.9919,-1.9917,-1.9915,-1.9913,-1.9916,-1.9918,-1.992,0,0,0,0,0,0,0,0,0,0,0,0,0,-1.994,-1.9926,-1.9982,-1.995,-1.9947,-1.9984,-1.9984,-1.9984,-1.992,-1.9917,-1.9915,-1.9912,-1.9915,-1.9917,-1.992,-1.9987,0,0,-1.9927,-1.9929,0,0,0,0,0,0,0,0,-1.9939,-1.9942,-1.9955,-1.9952,-1.9949,-1.9948,-1.9964,-1.9985,-1.992,-1.993,-1.9914,-1.9911,-1.9929,-1.993,-1.9936,-1.9987,-1.9987,-1.9928,-1.9929,-1.993,-1.9931,0,0,0,0,0,0,0,-1.9938,-1.9942,-1.9983,-1.9955,-1.9952,-1.9936,-1.9935,-1.9968,-1.9944,-1.9929,-1.9924,-1.9926,-1.9927,-1.9934,-1.9936,-1.9987,-1.9928,-1.993,-1.9931,-1.9932,-2.0093,-2.0096,0,0,0,0,0,0,-1.9941,-1.9941,-1.9983,-1.9983,-1.9938,-1.9939,-1.9938,-1.9951,-1.9944,-1.994,-1.9928,-1.9923,-1.9931,-1.9933,-1.9936,-2.0014,-1.993,-1.9933,-1.9934,-2.0091,-2.0094,-2.0097,0,0,0,0,0,0,-1.994,-1.9945,-1.9983,-1.9961,-1.9964,-1.9943,-1.9958,-1.9953,-1.996,-1.9942,-1.9938,-1.9939,-1.9929,-1.9932,-1.9975,-2.0013,-1.9934,-1.9936,-2.0087,-2.0092,-2.0096,-2.0171,0,0,0,0,0,0,-1.9939,-1.9946,-1.9971,-1.9962,-1.9966,-2.0022,-1.996,-1.9955,-1.9964,-1.9957,-1.9952,-1.9949,-1.9927,-1.9971,-1.9977,-2.0015,-1.9938,-2.0084,-2.0089,-2.0094,-2.0165,-2.0177,-2.0187,0,0,0,0,0,-1.9937,-1.9992,-1.9972,-1.9978,-1.9997,-2.0024,-2.0026,-2.0,-1.9967,-1.9993,-1.9982,-1.9949,-2.0008,-1.9976,-1.9982,-2.0021,-2.0081,-2.0088,-2.0094,-2.016,-2.0174,-2.0187,0,0,0,0,0,0,-2.0006,-1.999,-1.9968,-2.0022,-2.0025,-2.0013,-2.0044,-2.0017,-2.0029,-2.0023,-1.999,-1.9989,-2.0037,-2.0033,-1.9999,-2.0086,-2.0039,-2.0047,-2.0087,-2.0101,-2.0112,-2.0112,-1.994,0,0,0,0,0,-2.0027,-2.0051,-2.0036,-2.0085,-2.0087,-2.0066,-2.0077,-2.0056,-2.0058,-2.0059,-2.0051,-2.0054,-2.0073,-2.0087,-2.0104,-2.0164,-2.0162,-2.0194,-2.0205,-2.0214,-2.0221,-2.0253,-2.0267,-2.0118,-2.0117,-2.0117,0,0,-2.0072,-2.0066,-2.0083,-2.0098,-2.0098,-2.0123,-2.0067,-2.0096,-2.0114,-2.0063,-2.0103,-2.0098,-2.0099,-2.0151,-2.0173,-2.0149,-2.0262,-2.0222,-2.023,-2.0232,-2.0261,-2.0275,-2.0288,-2.0122,-2.0121,-2.012,0,0,-2.0166,-2.0164,-2.0204,-2.0206,-2.0206,-2.0191,-2.0201,-2.0194,-2.0188,-2.0227,-2.019,-2.0211,-2.0245,-2.0248,-2.0253,-2.0349,-2.0319,-2.0355,-2.0414,-2.0446,-2.0457,-2.0468,-2.0502,-2.0515,-2.0362,-2.0363,-2.0363,0,-2.0221,-2.0258,-2.0229,-2.026,-2.0268,-2.0223,-2.0264,-2.0267,-2.0273,-2.0279,-2.0252,-2.0294,-2.0292,-2.0343,-2.0367,-2.0373,-2.0383,-2.0356,-2.0458,-2.0468,-2.0477,-2.0509,-2.0522,-2.0367,-2.0366,-2.0366,-2.0366,0,-2.0326,-2.0351,-2.0384,-2.0391,-2.0403,-2.0439,-2.0416,-2.0431,-2.041,-2.0398,-2.0439,-2.0435,-2.045,-2.0461,-2.0441,-2.051,-2.0495,-2.0464,-2.0415,-2.0496,-2.0526,-2.0538,-2.0373,-2.0372,-2.037,-2.0369,0,0,-2.0463,-2.0454,-2.0466,-2.0469,-2.0466,-2.0486,-2.052,-2.0534,-2.0548,-2.0554,-2.0582,-2.0612,-2.0583,-2.059,-2.0569,-2.0597,-2.0673,-2.0562,-2.0562,-2.0583,-2.0749,-2.0773,-2.0788,-2.0653,-2.0656,-2.0657,-2.0749,0,-2.0554,-2.0612,-2.0587,-2.0647,-2.0671,-2.0628,-2.0658,-2.066,-2.065,-2.0669,-2.0658,-2.068,-2.064,-2.0643,-2.0669,-2.0658,-2.0706,-2.0651,-2.0679,-2.0681,-2.068,-2.0803,-2.0828,-2.0915,-2.0761,-2.0763,-2.0764,0,-2.0668,-2.0678,-2.0741,-2.0734,-2.0743,-2.0771,-2.0782,-2.0801,-2.0802,-2.0793,-2.0801,-2.0774,-2.0807,-2.076,-2.0806,-2.0769,-2.0779,-2.0776,-2.0778,-2.078,-2.0727,-2.0808,-2.0942,-2.0955,-2.0782,-2.078,-2.0779,0,-2.0762,-2.0792,-2.0833,-2.0836,-2.083,-2.085,-2.0848,-2.0847,-2.0857,-2.0868,-2.0874,-2.0888,-2.0896,-2.0908,-2.0886,-2.0854,-2.0935,-2.0886,-2.0929,-2.0929,-2.0947,-2.0947,-2.1085,-2.0954,-2.0954,-2.0954,-2.0954,0,-2.0866,-2.0906,-2.0875,-2.09,-2.0944,-2.0915,-2.0959,-2.0953,-2.0952,-2.0976,-2.094,-2.0963,-2.0933,-2.0954,-2.0937,-2.0977,-2.0981,-2.0975,-2.097,-2.0978,-2.0979,-2.0984,-2.0977,-2.0957,-2.0957,-2.0956,-2.0955,0,-2.0978,-2.0959,-2.1001,-2.0991,-2.099,-2.1022,-2.1014,-2.1037,-2.1025,-2.1056,-2.1061,-2.1042,-2.1064,-2.1044,-2.1064,-2.1053,-2.1107,-2.1094,-2.1107,-2.1103,-2.1147,-2.1143,-2.1293,-2.1312,-2.117,-2.1171,-2.1172,0,-2.1046,-2.1075,-2.1069,-2.1082,-2.1082,-2.1104,-2.1115,-2.1088,-2.11,-2.1104,-2.1127,-2.1146,-2.116,-2.1197,-2.1185,-2.1201,-2.1188,-2.1239,-2.119,-2.1197,-2.1188,-2.1187,-2.119,-2.1249,-2.1251,-2.1252,-2.1253,0,-2.1168,-2.1157,-2.1173,-2.1187,-2.12,-2.121,-2.1216,-2.1229,-2.1201,-2.1217,-2.1239,-2.125,-2.1271,-2.1291,-2.1303,-2.1301,-2.1273,-2.1269,-2.128,-2.1288,-2.1295,-2.1292,-2.1134,-2.1266,-2.1264,-2.1264,-2.1263,-2.1262,-2.126,-2.1284,-2.1283,-2.1303,-2.1305,-2.1312,-2.1334,-2.1324,-2.1342,-2.1357,-2.134,-2.1367,-2.1368,-2.1382,-2.1383,-2.1404,-2.1382,-2.1398,-2.1402,-2.1406,-2.1413,-2.1292,-2.1406,-2.1406,-2.1406,-2.1405,-2.1405,0,-2.138,-2.1377,-2.1396,-2.1406,-2.1422,-2.1394,-2.1399,-2.1414,-2.1439,-2.1442,-2.1456,-2.1481,-2.15,-2.149,-2.1506,-2.1525,-2.1512,-2.153,-2.1528,-2.1528,-2.1431,-2.142,-2.154,-2.154,-2.154,-2.154,-2.154,-2.154,-2.1444,-2.1484,-2.1473,-2.1514,-2.1511,-2.1537,-2.1543,-2.155,-2.1552,-2.1582,-2.1597,-2.1591,-2.1589,-2.1604,-2.162,-2.1617,-2.1625,-2.1647,-2.1639,-2.1548,-2.1535,-2.1523,-2.1512,-2.1649,-2.1649,-2.1734,-2.1735,-2.1736]},{"header":{"parameterUnit":"m.s-1","parameterCategory":1,"la1":30.2991,"la2":30.254,"lo1":-89.0895,"lo2":-89.0444,"dy":0.0017,"dx":0.0017,"nx":28,"ny":28,"refTime":"2025-12-23T09:00:00:Z","depth":0,"parameterNumber":3,"parameterNumberName":"V-component_of_WINDS"},"data":[0,0,0,0,0,0,0,0,0,0,0,0,0,0,0,0,0,0,0,0,0,0,0,0,0,0,0,0,0,0,0,0,0,0,0,0,0,0,0,0,0,0,0,0,0,0,0,0,0,0,0,0,0,0,0,0,0,0,0.6566,0.6566,0,0.6634,0.6635,0.6636,0.6635,0.6634,0.6633,0.6632,0.6705,0.6707,0.671,0,0,0,0,0,0,0,0,0,0,0,0,0,0.6438,0.6441,0.6565,0.6566,0.6567,0.6634,0.6635,0.6636,0.6635,0.6634,0.6633,0.6632,0.6704,0.6707,0.671,0,0,0,0,0,0,0,0,0,0,0,0,0,0.6499,0.6441,0.6565,0.6575,0.6576,0.6634,0.6635,0.6636,0.6635,0.6634,0.6633,0.6631,0.6703,0.6707,0.6711,0.6764,0,0,0.6724,0.6725,0,0,0,0,0,0,0,0,0.6495,0.6504,0.6573,0.6574,0.6576,0.6625,0.6616,0.6679,0.6636,0.6613,0.6632,0.6631,0.6679,0.6685,0.6701,0.6767,0.677,0.6724,0.6727,0.6728,0.6729,0,0,0,0,0,0,0,0.6491,0.6501,0.6593,0.6574,0.6576,0.6577,0.6584,0.6628,0.6653,0.6615,0.6615,0.6623,0.668,0.6697,0.6703,0.6771,0.6724,0.6728,0.673,0.6732,0.6887,0.6889,0,0,0,0,0,0,0.6485,0.6497,0.659,0.6595,0.6532,0.6581,0.6588,0.661,0.6653,0.6658,0.6624,0.6623,0.6691,0.6698,0.6705,0.6772,0.6728,0.6732,0.6735,0.6886,0.6888,0.6889,0,0,0,0,0,0,0.6482,0.6493,0.6588,0.6546,0.6558,0.6584,0.6609,0.6613,0.663,0.666,0.6664,0.6637,0.669,0.67,0.675,0.6775,0.6734,0.6738,0.6884,0.6886,0.6889,0.6905,0,0,0,0,0,0,0.6478,0.6492,0.6511,0.6546,0.656,0.663,0.661,0.6615,0.6637,0.6635,0.6673,0.6678,0.669,0.6744,0.6754,0.678,0.6741,0.6882,0.6885,0.6888,0.6902,0.6908,0.6912,0,0,0,0,0,0.6474,0.6513,0.6512,0.6523,0.6585,0.6631,0.6639,0.6652,0.6638,0.6659,0.6679,0.6676,0.677,0.6749,0.676,0.6788,0.688,0.6884,0.6888,0.69,0.6907,0.6912,0,0,0,0,0,0,0.648,0.6518,0.6517,0.6569,0.6597,0.6631,0.6657,0.6658,0.6691,0.6688,0.6703,0.6711,0.6762,0.678,0.6755,0.6843,0.6824,0.683,0.6829,0.6836,0.6841,0.6836,0.6744,0,0,0,0,0,0.6488,0.6521,0.6552,0.6595,0.6609,0.6631,0.6651,0.6659,0.6688,0.67,0.6724,0.6754,0.679,0.6814,0.6849,0.6905,0.6914,0.693,0.6935,0.6938,0.6944,0.6978,0.6986,0.6902,0.6902,0.6902,0,0,0.6503,0.6528,0.6548,0.6597,0.6619,0.6656,0.6641,0.6678,0.6706,0.6706,0.6756,0.6774,0.6809,0.6863,0.6888,0.6879,0.697,0.6943,0.6946,0.695,0.6983,0.6991,0.6998,0.6904,0.6904,0.6903,0,0,0.6551,0.6572,0.6611,0.6634,0.6668,0.6683,0.6692,0.6727,0.6739,0.6789,0.6791,0.6824,0.6885,0.6911,0.6932,0.6991,0.6992,0.7002,0.7029,0.7062,0.7068,0.7074,0.7098,0.7106,0.7008,0.7008,0.7008,0,0.6566,0.6619,0.6631,0.667,0.6692,0.6694,0.6735,0.6757,0.6802,0.6818,0.6807,0.6887,0.691,0.6971,0.6986,0.7002,0.7015,0.6999,0.7066,0.7072,0.7078,0.7101,0.7109,0.7009,0.7009,0.7009,0.7008,0,0.6638,0.6675,0.6703,0.6746,0.6771,0.6811,0.683,0.6855,0.686,0.6876,0.6928,0.6956,0.6998,0.7013,0.7019,0.7076,0.707,0.7063,0.7044,0.7087,0.7109,0.7118,0.7011,0.701,0.701,0.7009,0,0,0.6691,0.6741,0.6751,0.6772,0.6811,0.6841,0.6881,0.6922,0.6944,0.6975,0.7011,0.7064,0.7058,0.7082,0.7091,0.7119,0.7168,0.7109,0.711,0.7121,0.7236,0.7243,0.7253,0.7168,0.717,0.7171,0.7234,0,0.6744,0.6816,0.6829,0.6892,0.6928,0.6931,0.6967,0.6996,0.7012,0.7046,0.7065,0.7104,0.7091,0.7106,0.7135,0.7156,0.7192,0.7151,0.7204,0.7205,0.7197,0.7264,0.7271,0.7329,0.7243,0.7244,0.7245,0,0.6816,0.6849,0.6916,0.6952,0.6968,0.7,0.704,0.7071,0.7105,0.7115,0.7143,0.7149,0.7194,0.7172,0.7235,0.7208,0.723,0.7244,0.7246,0.7253,0.7229,0.7274,0.7348,0.7357,0.7258,0.7257,0.7256,0,0.6851,0.6912,0.6961,0.6978,0.7021,0.7044,0.7063,0.7095,0.712,0.7155,0.7172,0.7211,0.7234,0.7265,0.7283,0.7265,0.7345,0.7325,0.7357,0.7357,0.7375,0.7374,0.7455,0.7386,0.7386,0.7386,0.7385,0,0.691,0.6951,0.6977,0.7007,0.7055,0.707,0.7116,0.7135,0.7165,0.72,0.7205,0.7238,0.7258,0.7295,0.7309,0.736,0.737,0.7381,0.7385,0.7382,0.7381,0.7398,0.7395,0.7388,0.7387,0.7387,0.7387,0,0.6957,0.6976,0.703,0.7066,0.7077,0.711,0.7143,0.7173,0.719,0.7235,0.7246,0.7273,0.7317,0.7337,0.7391,0.7401,0.746,0.746,0.7449,0.7451,0.7483,0.7481,0.7579,0.7594,0.7513,0.7514,0.7515,0,0.6994,0.7027,0.7067,0.7091,0.7111,0.7149,0.7174,0.7191,0.7217,0.7259,0.7285,0.7329,0.7365,0.7435,0.7461,0.7503,0.7505,0.7537,0.7511,0.7509,0.7509,0.7507,0.7512,0.7542,0.7543,0.7543,0.7544,0,0.706,0.7068,0.7103,0.7144,0.7174,0.7206,0.7238,0.7257,0.7279,0.7309,0.7354,0.7382,0.7438,0.7482,0.7526,0.7548,0.7551,0.7551,0.7562,0.756,0.7553,0.756,0.7464,0.7549,0.7549,0.7548,0.7548,0.7548,0.7105,0.7134,0.7168,0.7209,0.7235,0.7265,0.7296,0.7317,0.7354,0.7401,0.7409,0.7457,0.7493,0.7552,0.7575,0.7615,0.7607,0.7621,0.7625,0.7629,0.7632,0.7546,0.7622,0.7622,0.7622,0.7622,0.7622,0,0.7172,0.7194,0.7231,0.7276,0.7309,0.7307,0.7343,0.7371,0.7414,0.7446,0.7482,0.7535,0.7578,0.7608,0.7652,0.7679,0.7681,0.769,0.7689,0.7695,0.7635,0.7623,0.7687,0.7687,0.7687,0.7687,0.7687,0.7687,0.7211,0.7262,0.7275,0.734,0.7362,0.7409,0.743,0.7459,0.7485,0.7544,0.758,0.7599,0.7631,0.7678,0.7719,0.7727,0.7744,0.7754,0.7762,0.7705,0.7699,0.7692,0.7681,0.7757,0.7757,0.7819,0.7819,0.782]}]]